Year,Month,Day,Hour,Minute,Value (Times are PST for temperature in C)
2017,05,23,00,00,16.50
2017,05,23,00,01,16.50
2017,05,23,00,02,16.50
2017,05,23,00,03,16.40
2017,05,23,00,04,16.40
2017,05,23,00,05,16.40
2017,05,23,00,06,16.40
2017,05,23,00,07,16.40
2017,05,23,00,08,16.40
2017,05,23,00,09,16.30
2017,05,23,00,10,16.30
2017,05,23,00,11,16.30
2017,05,23,00,12,16.20
2017,05,23,00,13,16.20
2017,05,23,00,14,16.20
2017,05,23,00,15,16.10
2017,05,23,00,16,16.10
2017,05,23,00,17,16.00
2017,05,23,00,18,16.00
2017,05,23,00,19,15.90
2017,05,23,00,20,15.90
2017,05,23,00,21,15.80
2017,05,23,00,22,15.70
2017,05,23,00,23,15.70
2017,05,23,00,24,15.60
2017,05,23,00,25,15.60
2017,05,23,00,26,15.50
2017,05,23,00,27,15.50
2017,05,23,00,28,15.40
2017,05,23,00,29,15.40
2017,05,23,00,30,15.40
2017,05,23,00,31,15.40
2017,05,23,00,32,15.40
2017,05,23,00,33,15.30
2017,05,23,00,34,15.30
2017,05,23,00,35,15.30
2017,05,23,00,36,15.30
2017,05,23,00,37,15.30
2017,05,23,00,38,15.30
2017,05,23,00,39,15.30
2017,05,23,00,40,15.40
2017,05,23,00,41,15.40
2017,05,23,00,42,15.40
2017,05,23,00,43,15.40
2017,05,23,00,44,15.40
2017,05,23,00,45,15.40
2017,05,23,00,46,15.40
2017,05,23,00,47,15.40
2017,05,23,00,48,15.40
2017,05,23,00,49,15.40
2017,05,23,00,50,15.40
2017,05,23,00,51,15.30
2017,05,23,00,52,15.30
2017,05,23,00,53,15.30
2017,05,23,00,54,15.30
2017,05,23,00,55,15.30
2017,05,23,00,56,15.30
2017,05,23,00,57,15.30
2017,05,23,00,58,15.40
2017,05,23,00,59,15.40
2017,05,23,01,00,15.40
2017,05,23,01,01,15.40
2017,05,23,01,02,15.40
2017,05,23,01,03,15.40
2017,05,23,01,04,15.40
2017,05,23,01,05,15.40
2017,05,23,01,06,15.40
2017,05,23,01,07,15.40
2017,05,23,01,08,15.40
2017,05,23,01,09,15.40
2017,05,23,01,10,15.40
2017,05,23,01,11,15.40
2017,05,23,01,12,15.40
2017,05,23,01,13,15.30
2017,05,23,01,14,15.30
2017,05,23,01,15,15.30
2017,05,23,01,16,15.30
2017,05,23,01,17,15.30
2017,05,23,01,18,15.20
2017,05,23,01,19,15.20
2017,05,23,01,20,15.20
2017,05,23,01,21,15.20
2017,05,23,01,22,15.20
2017,05,23,01,23,15.20
2017,05,23,01,24,15.20
2017,05,23,01,25,15.20
2017,05,23,01,26,15.20
2017,05,23,01,27,15.20
2017,05,23,01,28,15.20
2017,05,23,01,29,15.20
2017,05,23,01,30,15.10
2017,05,23,01,31,15.10
2017,05,23,01,32,15.00
2017,05,23,01,33,15.00
2017,05,23,01,34,15.00
2017,05,23,01,35,15.00
2017,05,23,01,36,15.00
2017,05,23,01,37,15.00
2017,05,23,01,38,15.00
2017,05,23,01,39,15.00
2017,05,23,01,40,15.00
2017,05,23,01,41,15.00
2017,05,23,01,42,15.00
2017,05,23,01,43,15.00
2017,05,23,01,44,15.00
2017,05,23,01,45,15.00
2017,05,23,01,46,15.00
2017,05,23,01,47,15.00
2017,05,23,01,48,15.00
2017,05,23,01,49,15.00
2017,05,23,01,50,15.00
2017,05,23,01,51,15.00
2017,05,23,01,52,15.00
2017,05,23,01,53,15.00
2017,05,23,01,54,15.00
2017,05,23,01,55,15.00
2017,05,23,01,56,15.00
2017,05,23,01,57,14.90
2017,05,23,01,58,14.90
2017,05,23,01,59,14.90
2017,05,23,02,00,14.90
2017,05,23,02,01,14.90
2017,05,23,02,02,14.90
2017,05,23,02,03,14.80
2017,05,23,02,04,14.80
2017,05,23,02,05,14.80
2017,05,23,02,06,14.80
2017,05,23,02,07,14.80
2017,05,23,02,08,14.80
2017,05,23,02,09,14.80
2017,05,23,02,10,14.70
2017,05,23,02,11,14.70
2017,05,23,02,12,14.70
2017,05,23,02,13,14.70
2017,05,23,02,14,14.70
2017,05,23,02,15,14.60
2017,05,23,02,16,14.60
2017,05,23,02,17,14.60
2017,05,23,02,18,14.60
2017,05,23,02,19,14.50
2017,05,23,02,20,14.50
2017,05,23,02,21,14.40
2017,05,23,02,22,14.40
2017,05,23,02,23,14.40
2017,05,23,02,24,14.40
2017,05,23,02,25,14.30
2017,05,23,02,26,14.30
2017,05,23,02,27,14.30
2017,05,23,02,28,14.30
2017,05,23,02,29,14.20
2017,05,23,02,30,14.20
2017,05,23,02,31,14.20
2017,05,23,02,32,14.20
2017,05,23,02,33,14.20
2017,05,23,02,34,14.20
2017,05,23,02,35,14.20
2017,05,23,02,36,14.20
2017,05,23,02,37,14.20
2017,05,23,02,38,14.10
2017,05,23,02,39,14.10
2017,05,23,02,40,14.10
2017,05,23,02,41,14.10
2017,05,23,02,42,14.00
2017,05,23,02,43,14.00
2017,05,23,02,44,14.00
2017,05,23,02,45,13.90
2017,05,23,02,46,13.90
2017,05,23,02,47,13.90
2017,05,23,02,48,13.90
2017,05,23,02,49,13.90
2017,05,23,02,50,13.90
2017,05,23,02,51,13.90
2017,05,23,02,52,13.90
2017,05,23,02,53,13.80
2017,05,23,02,54,13.80
2017,05,23,02,55,13.80
2017,05,23,02,56,13.80
2017,05,23,02,57,13.80
2017,05,23,02,58,13.70
2017,05,23,02,59,13.70
2017,05,23,03,00,13.70
2017,05,23,03,01,13.70
2017,05,23,03,02,13.60
2017,05,23,03,03,13.60
2017,05,23,03,04,13.60
2017,05,23,03,05,13.60
2017,05,23,03,06,13.50
2017,05,23,03,07,13.50
2017,05,23,03,08,13.50
2017,05,23,03,09,13.40
2017,05,23,03,10,13.40
2017,05,23,03,11,13.40
2017,05,23,03,12,13.40
2017,05,23,03,13,13.40
2017,05,23,03,14,13.40
2017,05,23,03,15,13.40
2017,05,23,03,16,13.40
2017,05,23,03,17,13.30
2017,05,23,03,18,13.30
2017,05,23,03,19,13.30
2017,05,23,03,20,13.30
2017,05,23,03,21,13.30
2017,05,23,03,22,13.30
2017,05,23,03,23,13.30
2017,05,23,03,24,13.30
2017,05,23,03,25,13.40
2017,05,23,03,26,13.40
2017,05,23,03,27,13.40
2017,05,23,03,28,13.40
2017,05,23,03,29,13.40
2017,05,23,03,30,13.40
2017,05,23,03,31,13.40
2017,05,23,03,32,13.40
2017,05,23,03,33,13.50
2017,05,23,03,34,13.50
2017,05,23,03,35,13.50
2017,05,23,03,36,13.50
2017,05,23,03,37,13.50
2017,05,23,03,38,13.50
2017,05,23,03,39,13.40
2017,05,23,03,40,13.40
2017,05,23,03,41,13.40
2017,05,23,03,42,13.40
2017,05,23,03,43,13.40
2017,05,23,03,44,13.40
2017,05,23,03,45,13.40
2017,05,23,03,46,13.40
2017,05,23,03,47,13.40
2017,05,23,03,48,13.40
2017,05,23,03,49,13.40
2017,05,23,03,50,13.40
2017,05,23,03,51,13.40
2017,05,23,03,52,13.50
2017,05,23,03,53,13.50
2017,05,23,03,54,13.60
2017,05,23,03,55,13.60
2017,05,23,03,56,13.60
2017,05,23,03,57,13.60
2017,05,23,03,58,13.60
2017,05,23,03,59,13.60
2017,05,23,04,00,13.60
2017,05,23,04,01,13.60
2017,05,23,04,02,13.60
2017,05,23,04,03,13.60
2017,05,23,04,04,13.60
2017,05,23,04,05,13.50
2017,05,23,04,06,13.50
2017,05,23,04,07,13.50
2017,05,23,04,08,13.40
2017,05,23,04,09,13.40
2017,05,23,04,10,13.40
2017,05,23,04,11,13.40
2017,05,23,04,12,13.40
2017,05,23,04,13,13.40
2017,05,23,04,14,13.40
2017,05,23,04,15,13.30
2017,05,23,04,16,13.30
2017,05,23,04,17,13.30
2017,05,23,04,18,13.30
2017,05,23,04,19,13.30
2017,05,23,04,20,13.30
2017,05,23,04,21,13.30
2017,05,23,04,22,13.30
2017,05,23,04,23,13.30
2017,05,23,04,24,13.30
2017,05,23,04,25,13.30
2017,05,23,04,26,13.30
2017,05,23,04,27,13.30
2017,05,23,04,28,13.30
2017,05,23,04,29,13.30
2017,05,23,04,30,13.30
2017,05,23,04,31,13.30
2017,05,23,04,32,13.30
2017,05,23,04,33,13.30
2017,05,23,04,34,13.30
2017,05,23,04,35,13.30
2017,05,23,04,36,13.20
2017,05,23,04,37,13.20
2017,05,23,04,38,13.20
2017,05,23,04,39,13.10
2017,05,23,04,40,13.10
2017,05,23,04,41,13.10
2017,05,23,04,42,13.00
2017,05,23,04,43,13.00
2017,05,23,04,44,12.90
2017,05,23,04,45,12.90
2017,05,23,04,46,12.80
2017,05,23,04,47,12.80
2017,05,23,04,48,12.70
2017,05,23,04,49,12.70
2017,05,23,04,50,12.70
2017,05,23,04,51,12.60
2017,05,23,04,52,12.60
2017,05,23,04,53,12.60
2017,05,23,04,54,12.50
2017,05,23,04,55,12.50
2017,05,23,04,56,12.40
2017,05,23,04,57,12.40
2017,05,23,04,58,12.40
2017,05,23,04,59,12.30
2017,05,23,05,00,12.30
2017,05,23,05,01,12.30
2017,05,23,05,02,12.30
2017,05,23,05,03,12.20
2017,05,23,05,04,12.20
2017,05,23,05,05,12.20
2017,05,23,05,06,12.20
2017,05,23,05,07,12.20
2017,05,23,05,08,12.20
2017,05,23,05,09,12.20
2017,05,23,05,10,12.20
2017,05,23,05,11,12.20
2017,05,23,05,12,12.20
2017,05,23,05,13,12.30
2017,05,23,05,14,12.30
2017,05,23,05,15,12.30
2017,05,23,05,16,12.30
2017,05,23,05,17,12.30
2017,05,23,05,18,12.30
2017,05,23,05,19,12.30
2017,05,23,05,20,12.30
2017,05,23,05,21,12.30
2017,05,23,05,22,12.20
2017,05,23,05,23,12.20
2017,05,23,05,24,12.20
2017,05,23,05,25,12.20
2017,05,23,05,26,12.20
2017,05,23,05,27,12.20
2017,05,23,05,28,12.20
2017,05,23,05,29,12.20
2017,05,23,05,30,12.20
2017,05,23,05,31,12.20
2017,05,23,05,32,12.20
2017,05,23,05,33,12.20
2017,05,23,05,34,12.20
2017,05,23,05,35,12.20
2017,05,23,05,36,12.20
2017,05,23,05,37,12.10
2017,05,23,05,38,12.10
2017,05,23,05,39,12.10
2017,05,23,05,40,12.10
2017,05,23,05,41,12.10
2017,05,23,05,42,12.10
2017,05,23,05,43,12.10
2017,05,23,05,44,12.00
2017,05,23,05,45,12.00
2017,05,23,05,46,12.00
2017,05,23,05,47,11.90
2017,05,23,05,48,11.90
2017,05,23,05,49,11.90
2017,05,23,05,50,11.90
2017,05,23,05,51,11.90
2017,05,23,05,52,11.90
2017,05,23,05,53,11.90
2017,05,23,05,54,11.90
2017,05,23,05,55,11.90
2017,05,23,05,56,11.90
2017,05,23,05,57,11.90
2017,05,23,05,58,11.90
2017,05,23,05,59,11.80
2017,05,23,06,00,11.90
2017,05,23,06,01,11.90
2017,05,23,06,02,11.90
2017,05,23,06,03,11.80
2017,05,23,06,04,11.80
2017,05,23,06,05,11.80
2017,05,23,06,06,11.90
2017,05,23,06,07,11.90
2017,05,23,06,08,11.90
2017,05,23,06,09,11.90
2017,05,23,06,10,11.90
2017,05,23,06,11,11.90
2017,05,23,06,12,11.90
2017,05,23,06,13,12.00
2017,05,23,06,14,11.90
2017,05,23,06,15,11.90
2017,05,23,06,16,11.90
2017,05,23,06,17,11.90
2017,05,23,06,18,11.90
2017,05,23,06,19,11.90
2017,05,23,06,20,11.90
2017,05,23,06,21,11.90
2017,05,23,06,22,12.00
2017,05,23,06,23,12.00
2017,05,23,06,24,12.00
2017,05,23,06,25,12.00
2017,05,23,06,26,12.00
2017,05,23,06,27,12.10
2017,05,23,06,28,12.10
2017,05,23,06,29,12.10
2017,05,23,06,30,12.10
2017,05,23,06,31,12.10
2017,05,23,06,32,12.20
2017,05,23,06,33,12.20
2017,05,23,06,34,12.20
2017,05,23,06,35,12.20
2017,05,23,06,36,12.20
2017,05,23,06,37,12.20
2017,05,23,06,38,12.20
2017,05,23,06,39,12.20
2017,05,23,06,40,12.20
2017,05,23,06,41,12.20
2017,05,23,06,42,12.20
2017,05,23,06,43,12.20
2017,05,23,06,44,12.30
2017,05,23,06,45,12.30
2017,05,23,06,46,12.30
2017,05,23,06,47,12.30
2017,05,23,06,48,12.30
2017,05,23,06,49,12.30
2017,05,23,06,50,12.30
2017,05,23,06,51,12.30
2017,05,23,06,52,12.30
2017,05,23,06,53,12.30
2017,05,23,06,54,12.30
2017,05,23,06,55,12.30
2017,05,23,06,56,12.40
2017,05,23,06,57,12.40
2017,05,23,06,58,12.40
2017,05,23,06,59,12.50
2017,05,23,07,00,12.50
2017,05,23,07,01,12.50
2017,05,23,07,02,12.60
2017,05,23,07,03,12.60
2017,05,23,07,04,12.60
2017,05,23,07,05,12.70
2017,05,23,07,06,12.70
2017,05,23,07,07,12.70
2017,05,23,07,08,12.70
2017,05,23,07,09,12.80
2017,05,23,07,10,12.80
2017,05,23,07,11,12.80
2017,05,23,07,12,12.80
2017,05,23,07,13,12.90
2017,05,23,07,14,12.90
2017,05,23,07,15,12.90
2017,05,23,07,16,13.00
2017,05,23,07,17,13.00
2017,05,23,07,18,13.10
2017,05,23,07,19,13.10
2017,05,23,07,20,13.10
2017,05,23,07,21,13.20
2017,05,23,07,22,13.20
2017,05,23,07,23,13.30
2017,05,23,07,24,13.30
2017,05,23,07,25,13.40
2017,05,23,07,26,13.40
2017,05,23,07,27,13.50
2017,05,23,07,28,13.50
2017,05,23,07,29,13.60
2017,05,23,07,30,13.60
2017,05,23,07,31,13.70
2017,05,23,07,32,13.70
2017,05,23,07,33,13.80
2017,05,23,07,34,13.80
2017,05,23,07,35,13.90
2017,05,23,07,36,13.90
2017,05,23,07,37,13.90
2017,05,23,07,38,14.00
2017,05,23,07,39,14.10
2017,05,23,07,40,14.10
2017,05,23,07,41,14.10
2017,05,23,07,42,14.20
2017,05,23,07,43,14.20
2017,05,23,07,44,14.30
2017,05,23,07,45,14.30
2017,05,23,07,46,14.40
2017,05,23,07,47,14.40
2017,05,23,07,48,14.50
2017,05,23,07,49,14.50
2017,05,23,07,50,14.60
2017,05,23,07,51,14.70
2017,05,23,07,52,14.80
2017,05,23,07,53,14.80
2017,05,23,07,54,14.90
2017,05,23,07,55,15.00
2017,05,23,07,56,15.00
2017,05,23,07,57,15.00
2017,05,23,07,58,15.00
2017,05,23,07,59,15.00
2017,05,23,08,00,15.00
2017,05,23,08,01,15.00
2017,05,23,08,02,15.00
2017,05,23,08,03,15.00
2017,05,23,08,04,15.00
2017,05,23,08,05,15.10
2017,05,23,08,06,15.20
2017,05,23,08,07,15.30
2017,05,23,08,08,15.30
2017,05,23,08,09,15.30
2017,05,23,08,10,15.40
2017,05,23,08,11,15.40
2017,05,23,08,12,15.50
2017,05,23,08,13,15.50
2017,05,23,08,14,15.60
2017,05,23,08,15,15.60
2017,05,23,08,16,15.70
2017,05,23,08,17,15.80
2017,05,23,08,18,15.80
2017,05,23,08,19,15.90
2017,05,23,08,20,15.90
2017,05,23,08,21,16.00
2017,05,23,08,22,16.10
2017,05,23,08,23,16.10
2017,05,23,08,24,16.20
2017,05,23,08,25,16.30
2017,05,23,08,26,16.30
2017,05,23,08,27,16.40
2017,05,23,08,28,16.40
2017,05,23,08,29,16.50
2017,05,23,08,30,16.60
2017,05,23,08,31,16.70
2017,05,23,08,32,16.70
2017,05,23,08,33,16.80
2017,05,23,08,34,16.90
2017,05,23,08,35,16.90
2017,05,23,08,36,17.00
2017,05,23,08,37,17.10
2017,05,23,08,38,17.20
2017,05,23,08,39,17.20
2017,05,23,08,40,17.30
2017,05,23,08,41,17.40
2017,05,23,08,42,17.40
2017,05,23,08,43,17.40
2017,05,23,08,44,17.40
2017,05,23,08,45,17.50
2017,05,23,08,46,17.50
2017,05,23,08,47,17.50
2017,05,23,08,48,17.50
2017,05,23,08,49,17.50
2017,05,23,08,50,17.50
2017,05,23,08,51,17.60
2017,05,23,08,52,17.60
2017,05,23,08,53,17.60
2017,05,23,08,54,17.70
2017,05,23,08,55,17.70
2017,05,23,08,56,17.70
2017,05,23,08,57,17.70
2017,05,23,08,58,17.70
2017,05,23,08,59,17.80
2017,05,23,09,00,17.80
2017,05,23,09,01,17.80
2017,05,23,09,02,17.80
2017,05,23,09,03,17.90
2017,05,23,09,04,17.90
2017,05,23,09,05,17.90
2017,05,23,09,06,18.00
2017,05,23,09,07,18.00
2017,05,23,09,08,18.10
2017,05,23,09,09,18.10
2017,05,23,09,10,18.20
2017,05,23,09,11,18.20
2017,05,23,09,12,18.30
2017,05,23,09,13,18.30
2017,05,23,09,14,18.40
2017,05,23,09,15,18.40
2017,05,23,09,16,18.50
2017,05,23,09,17,18.50
2017,05,23,09,18,18.60
2017,05,23,09,19,18.60
2017,05,23,09,20,18.60
2017,05,23,09,21,18.70
2017,05,23,09,22,18.70
2017,05,23,09,23,18.80
2017,05,23,09,24,18.80
2017,05,23,09,25,18.90
2017,05,23,09,26,19.00
2017,05,23,09,27,19.00
2017,05,23,09,28,19.10
2017,05,23,09,29,19.20
2017,05,23,09,30,19.30
2017,05,23,09,31,19.30
2017,05,23,09,32,19.40
2017,05,23,09,33,19.50
2017,05,23,09,34,19.60
2017,05,23,09,35,19.60
2017,05,23,09,36,19.70
2017,05,23,09,37,19.80
2017,05,23,09,38,20.00
2017,05,23,09,39,20.10
2017,05,23,09,40,20.10
2017,05,23,09,41,20.20
2017,05,23,09,42,20.30
2017,05,23,09,43,20.40
2017,05,23,09,44,20.50
2017,05,23,09,45,20.60
2017,05,23,09,46,20.80
2017,05,23,09,47,20.90
2017,05,23,09,48,21.10
2017,05,23,09,49,21.10
2017,05,23,09,50,21.20
2017,05,23,09,51,21.30
2017,05,23,09,52,21.30
2017,05,23,09,53,21.40
2017,05,23,09,54,21.50
2017,05,23,09,55,21.50
2017,05,23,09,56,21.60
2017,05,23,09,57,21.60
2017,05,23,09,58,21.70
2017,05,23,09,59,21.80
2017,05,23,10,00,21.80
2017,05,23,10,01,21.90
2017,05,23,10,02,22.00
2017,05,23,10,03,22.10
2017,05,23,10,04,22.20
2017,05,23,10,05,22.20
2017,05,23,10,06,22.30
2017,05,23,10,07,22.30
2017,05,23,10,08,22.30
2017,05,23,10,09,22.20
2017,05,23,10,10,22.20
2017,05,23,10,11,22.20
2017,05,23,10,12,22.20
2017,05,23,10,13,22.30
2017,05,23,10,14,22.30
2017,05,23,10,15,22.40
2017,05,23,10,16,22.40
2017,05,23,10,17,22.50
2017,05,23,10,18,22.50
2017,05,23,10,19,22.60
2017,05,23,10,20,22.60
2017,05,23,10,21,22.70
2017,05,23,10,22,22.70
2017,05,23,10,23,22.70
2017,05,23,10,24,22.80
2017,05,23,10,25,22.90
2017,05,23,10,26,22.90
2017,05,23,10,27,23.00
2017,05,23,10,28,23.10
2017,05,23,10,29,23.10
2017,05,23,10,30,23.20
2017,05,23,10,31,23.20
2017,05,23,10,32,23.10
2017,05,23,10,33,23.10
2017,05,23,10,34,23.20
2017,05,23,10,35,23.20
2017,05,23,10,36,23.20
2017,05,23,10,37,23.20
2017,05,23,10,38,23.20
2017,05,23,10,39,23.20
2017,05,23,10,40,23.20
2017,05,23,10,41,23.20
2017,05,23,10,42,23.20
2017,05,23,10,43,23.30
2017,05,23,10,44,23.30
2017,05,23,10,45,23.30
2017,05,23,10,46,23.40
2017,05,23,10,47,23.50
2017,05,23,10,48,23.60
2017,05,23,10,49,23.60
2017,05,23,10,50,23.70
2017,05,23,10,51,23.70
2017,05,23,10,52,23.70
2017,05,23,10,53,23.60
2017,05,23,10,54,23.60
2017,05,23,10,55,23.60
2017,05,23,10,56,23.60
2017,05,23,10,57,23.50
2017,05,23,10,58,23.50
2017,05,23,10,59,23.60
2017,05,23,11,00,23.60
2017,05,23,11,01,23.70
2017,05,23,11,02,23.70
2017,05,23,11,03,23.70
2017,05,23,11,04,23.80
2017,05,23,11,05,23.80
2017,05,23,11,06,23.80
2017,05,23,11,07,23.80
2017,05,23,11,08,23.80
2017,05,23,11,09,23.80
2017,05,23,11,10,23.80
2017,05,23,11,11,23.80
2017,05,23,11,12,23.80
2017,05,23,11,13,23.80
2017,05,23,11,14,23.80
2017,05,23,11,15,23.80
2017,05,23,11,16,23.80
2017,05,23,11,17,23.80
2017,05,23,11,18,23.80
2017,05,23,11,19,23.90
2017,05,23,11,20,23.90
2017,05,23,11,21,23.80
2017,05,23,11,22,23.80
2017,05,23,11,23,23.90
2017,05,23,11,24,23.90
2017,05,23,11,25,23.90
2017,05,23,11,26,24.00
2017,05,23,11,27,24.00
2017,05,23,11,28,24.00
2017,05,23,11,29,24.00
2017,05,23,11,30,24.00
2017,05,23,11,31,23.90
2017,05,23,11,32,23.90
2017,05,23,11,33,23.80
2017,05,23,11,34,23.80
2017,05,23,11,35,23.70
2017,05,23,11,36,23.70
2017,05,23,11,37,23.70
2017,05,23,11,38,23.60
2017,05,23,11,39,23.70
2017,05,23,11,40,23.70
2017,05,23,11,41,23.70
2017,05,23,11,42,23.70
2017,05,23,11,43,23.70
2017,05,23,11,44,23.70
2017,05,23,11,45,23.70
2017,05,23,11,46,23.70
2017,05,23,11,47,23.70
2017,05,23,11,48,23.70
2017,05,23,11,49,23.70
2017,05,23,11,50,23.70
2017,05,23,11,51,23.70
2017,05,23,11,52,23.70
2017,05,23,11,53,23.80
2017,05,23,11,54,23.80
2017,05,23,11,55,23.80
2017,05,23,11,56,23.80
2017,05,23,11,57,23.80
2017,05,23,11,58,23.80
2017,05,23,11,59,23.90
2017,05,23,12,00,23.90
2017,05,23,12,01,23.90
2017,05,23,12,02,23.90
2017,05,23,12,03,23.90
2017,05,23,12,04,23.90
2017,05,23,12,05,24.00
2017,05,23,12,06,24.00
2017,05,23,12,07,23.90
2017,05,23,12,08,23.90
2017,05,23,12,09,23.90
2017,05,23,12,10,23.90
2017,05,23,12,11,23.90
2017,05,23,12,12,23.80
2017,05,23,12,13,23.80
2017,05,23,12,14,23.80
2017,05,23,12,15,23.80
2017,05,23,12,16,23.80
2017,05,23,12,17,23.80
2017,05,23,12,18,23.80
2017,05,23,12,19,23.80
2017,05,23,12,20,23.80
2017,05,23,12,21,23.80
2017,05,23,12,22,23.80
2017,05,23,12,23,23.80
2017,05,23,12,24,23.80
2017,05,23,12,25,23.70
2017,05,23,12,26,23.60
2017,05,23,12,27,23.60
2017,05,23,12,28,23.50
2017,05,23,12,29,23.50
2017,05,23,12,30,23.40
2017,05,23,12,31,23.40
2017,05,23,12,32,23.40
2017,05,23,12,33,23.40
2017,05,23,12,34,23.40
2017,05,23,12,35,23.40
2017,05,23,12,36,23.30
2017,05,23,12,37,23.30
2017,05,23,12,38,23.40
2017,05,23,12,39,23.30
2017,05,23,12,40,23.30
2017,05,23,12,41,23.30
2017,05,23,12,42,23.30
2017,05,23,12,43,23.20
2017,05,23,12,44,23.30
2017,05,23,12,45,23.30
2017,05,23,12,46,23.30
2017,05,23,12,47,23.30
2017,05,23,12,48,23.30
2017,05,23,12,49,23.40
2017,05,23,12,50,23.40
2017,05,23,12,51,23.40
2017,05,23,12,52,23.40
2017,05,23,12,53,23.40
2017,05,23,12,54,23.50
2017,05,23,12,55,23.50
2017,05,23,12,56,23.40
2017,05,23,12,57,23.40
2017,05,23,12,58,23.40
2017,05,23,12,59,23.40
2017,05,23,13,00,23.50
2017,05,23,13,01,23.50
2017,05,23,13,02,23.50
2017,05,23,13,03,23.50
2017,05,23,13,04,23.50
2017,05,23,13,05,23.50
2017,05,23,13,06,23.50
2017,05,23,13,07,23.50
2017,05,23,13,08,23.60
2017,05,23,13,09,23.60
2017,05,23,13,10,23.50
2017,05,23,13,11,23.50
2017,05,23,13,12,23.40
2017,05,23,13,13,23.40
2017,05,23,13,14,23.40
2017,05,23,13,15,23.40
2017,05,23,13,16,23.40
2017,05,23,13,17,23.40
2017,05,23,13,18,23.40
2017,05,23,13,19,23.40
2017,05,23,13,20,23.30
2017,05,23,13,21,23.30
2017,05,23,13,22,23.20
2017,05,23,13,23,23.20
2017,05,23,13,24,23.20
2017,05,23,13,25,23.20
2017,05,23,13,26,23.20
2017,05,23,13,27,23.10
2017,05,23,13,28,23.10
2017,05,23,13,29,23.00
2017,05,23,13,30,23.00
2017,05,23,13,31,23.00
2017,05,23,13,32,22.90
2017,05,23,13,33,23.00
2017,05,23,13,34,23.00
2017,05,23,13,35,22.90
2017,05,23,13,36,22.90
2017,05,23,13,37,22.90
2017,05,23,13,38,22.90
2017,05,23,13,39,22.80
2017,05,23,13,40,22.80
2017,05,23,13,41,22.80
2017,05,23,13,42,22.70
2017,05,23,13,43,22.70
2017,05,23,13,44,22.70
2017,05,23,13,45,22.60
2017,05,23,13,46,22.60
2017,05,23,13,47,22.60
2017,05,23,13,48,22.60
2017,05,23,13,49,22.60
2017,05,23,13,50,22.60
2017,05,23,13,51,22.50
2017,05,23,13,52,22.40
2017,05,23,13,53,22.30
2017,05,23,13,54,22.30
2017,05,23,13,55,22.30
2017,05,23,13,56,22.30
2017,05,23,13,57,22.20
2017,05,23,13,58,22.20
2017,05,23,13,59,22.20
2017,05,23,14,00,22.20
2017,05,23,14,01,22.10
2017,05,23,14,02,22.10
2017,05,23,14,03,22.10
2017,05,23,14,04,22.00
2017,05,23,14,05,21.90
2017,05,23,14,06,21.80
2017,05,23,14,07,21.80
2017,05,23,14,08,21.80
2017,05,23,14,09,21.70
2017,05,23,14,10,21.60
2017,05,23,14,11,21.50
2017,05,23,14,12,21.40
2017,05,23,14,13,21.30
2017,05,23,14,14,21.20
2017,05,23,14,15,21.20
2017,05,23,14,16,21.20
2017,05,23,14,17,21.20
2017,05,23,14,18,21.20
2017,05,23,14,19,21.20
2017,05,23,14,20,21.10
2017,05,23,14,21,21.10
2017,05,23,14,22,21.10
2017,05,23,14,23,21.10
2017,05,23,14,24,21.10
2017,05,23,14,25,21.10
2017,05,23,14,26,21.10
2017,05,23,14,27,21.00
2017,05,23,14,28,21.00
2017,05,23,14,29,21.00
2017,05,23,14,30,21.00
2017,05,23,14,31,20.90
2017,05,23,14,32,20.90
2017,05,23,14,33,20.90
2017,05,23,14,34,21.00
2017,05,23,14,35,21.00
2017,05,23,14,36,21.00
2017,05,23,14,37,20.90
2017,05,23,14,38,20.90
2017,05,23,14,39,20.90
2017,05,23,14,40,20.80
2017,05,23,14,41,20.70
2017,05,23,14,42,20.60
2017,05,23,14,43,20.50
2017,05,23,14,44,20.40
2017,05,23,14,45,20.40
2017,05,23,14,46,20.40
2017,05,23,14,47,20.30
2017,05,23,14,48,20.30
2017,05,23,14,49,20.30
2017,05,23,14,50,20.30
2017,05,23,14,51,20.30
2017,05,23,14,52,20.30
2017,05,23,14,53,20.30
2017,05,23,14,54,20.30
2017,05,23,14,55,20.30
2017,05,23,14,56,20.30
2017,05,23,14,57,20.30
2017,05,23,14,58,20.30
2017,05,23,14,59,20.30
2017,05,23,15,00,20.20
2017,05,23,15,01,20.10
2017,05,23,15,02,20.10
2017,05,23,15,03,20.00
2017,05,23,15,04,20.00
2017,05,23,15,05,20.00
2017,05,23,15,06,20.00
2017,05,23,15,07,19.90
2017,05,23,15,08,19.80
2017,05,23,15,09,19.80
2017,05,23,15,10,19.70
2017,05,23,15,11,19.60
2017,05,23,15,12,19.60
2017,05,23,15,13,19.60
2017,05,23,15,14,19.50
2017,05,23,15,15,19.50
2017,05,23,15,16,19.40
2017,05,23,15,17,19.30
2017,05,23,15,18,19.30
2017,05,23,15,19,19.20
2017,05,23,15,20,19.10
2017,05,23,15,21,19.10
2017,05,23,15,22,19.00
2017,05,23,15,23,19.10
2017,05,23,15,24,19.00
2017,05,23,15,25,18.90
2017,05,23,15,26,18.90
2017,05,23,15,27,18.80
2017,05,23,15,28,18.70
2017,05,23,15,29,18.70
2017,05,23,15,30,18.60
2017,05,23,15,31,18.50
2017,05,23,15,32,18.40
2017,05,23,15,33,18.40
2017,05,23,15,34,18.30
2017,05,23,15,35,18.30
2017,05,23,15,36,18.40
2017,05,23,15,37,18.40
2017,05,23,15,38,18.40
2017,05,23,15,39,18.30
2017,05,23,15,40,18.30
2017,05,23,15,41,18.10
2017,05,23,15,42,18.10
2017,05,23,15,43,18.10
2017,05,23,15,44,18.10
2017,05,23,15,45,18.10
2017,05,23,15,46,18.10
2017,05,23,15,47,18.10
2017,05,23,15,48,18.10
2017,05,23,15,49,18.10
2017,05,23,15,50,18.10
2017,05,23,15,51,18.10
2017,05,23,15,52,18.00
2017,05,23,15,53,18.00
2017,05,23,15,54,17.90
2017,05,23,15,55,17.90
2017,05,23,15,56,17.90
2017,05,23,15,57,17.90
2017,05,23,15,58,17.90
2017,05,23,15,59,17.80
2017,05,23,16,00,17.80
2017,05,23,16,01,17.90
2017,05,23,16,02,17.90
2017,05,23,16,03,17.90
2017,05,23,16,04,17.90
2017,05,23,16,05,18.00
2017,05,23,16,06,18.00
2017,05,23,16,07,18.00
2017,05,23,16,08,18.00
2017,05,23,16,09,18.00
2017,05,23,16,10,18.00
2017,05,23,16,11,18.00
2017,05,23,16,12,18.00
2017,05,23,16,13,18.00
2017,05,23,16,14,18.00
2017,05,23,16,15,18.00
2017,05,23,16,16,18.00
2017,05,23,16,17,18.00
2017,05,23,16,18,18.10
2017,05,23,16,19,18.10
2017,05,23,16,20,18.10
2017,05,23,16,21,18.10
2017,05,23,16,22,18.10
2017,05,23,16,23,18.10
2017,05,23,16,24,18.10
2017,05,23,16,25,18.10
2017,05,23,16,26,18.10
2017,05,23,16,27,18.10
2017,05,23,16,28,18.10
2017,05,23,16,29,18.10
2017,05,23,16,30,18.10
2017,05,23,16,31,18.20
2017,05,23,16,32,18.20
2017,05,23,16,33,18.30
2017,05,23,16,34,18.30
2017,05,23,16,35,18.40
2017,05,23,16,36,18.40
2017,05,23,16,37,18.40
2017,05,23,16,38,18.40
2017,05,23,16,39,18.40
2017,05,23,16,40,18.30
2017,05,23,16,41,18.30
2017,05,23,16,42,18.30
2017,05,23,16,43,18.30
2017,05,23,16,44,18.30
2017,05,23,16,45,18.30
2017,05,23,16,46,18.30
2017,05,23,16,47,18.30
2017,05,23,16,48,18.30
2017,05,23,16,49,18.30
2017,05,23,16,50,18.40
2017,05,23,16,51,18.40
2017,05,23,16,52,18.40
2017,05,23,16,53,18.40
2017,05,23,16,54,18.40
2017,05,23,16,55,18.40
2017,05,23,16,56,18.40
2017,05,23,16,57,18.40
2017,05,23,16,58,18.50
2017,05,23,16,59,18.50
2017,05,23,17,00,18.50
2017,05,23,17,01,18.40
2017,05,23,17,02,18.40
2017,05,23,17,03,18.30
2017,05,23,17,04,18.30
2017,05,23,17,05,18.30
2017,05,23,17,06,18.20
2017,05,23,17,07,18.20
2017,05,23,17,08,18.20
2017,05,23,17,09,18.10
2017,05,23,17,10,18.10
2017,05,23,17,11,18.10
2017,05,23,17,12,18.00
2017,05,23,17,13,17.90
2017,05,23,17,14,17.80
2017,05,23,17,15,17.80
2017,05,23,17,16,17.80
2017,05,23,17,17,17.70
2017,05,23,17,18,17.60
2017,05,23,17,19,17.60